KUIPER-00446

导读

KUIPER-00446(NORAD编号68944)是亚马逊柯伊伯(Kuiper)低轨互联网卫星星座的成员之一,隶属于柯伊伯系统卫星群计划。作为亚马逊打造的近地轨道宽带通信卫星,它运行在低地球轨道,依托V及Ku波段提供高速低延迟的宽带互联网服务,旨在实现全球范围的网络覆盖,填补偏远地区网络连接空白,也可为地面通信网络提供回传支持,目前该卫星处于在轨运行状态,是柯伊伯星座规模化部署进程中的组成单元,服务于全球卫星互联网组网建设。

Basic Information
目录编号:
68944
目录名称:
KUIPER-00446
国际标识:
2026-098AB
轨道中心:
EARTH
卫星名称:
KUIPER-00446
卫星全名:
KUIPER-00446
卫星状态:
在轨 (已飞行128 天)
发射日期:
2026-04-30 UTC
国别 :
美国 (US)
星等 :
--
Orbit Information
数据来源 国际轨道数据 AOE轨道数据
星历时间 2026-09-05T05:52:47+0800
11小时前
查看轨道信息
2026-09-04T10:00:00+0800
1天前
查看轨道信息
半长轴 7007.678km 7007.681km
偏心率 0.0001173 0.0001324
轨道倾角 51.900° 51.900°
近地点辐角 197.588° 200.401°
升交点赤经 60.634° 64.297°
平近点角 162.504° 63.946°
近地点 628.718km 628.616km
远地点 630.364km 630.472km
周期 97.302分钟 97.302分钟
每日圈数 14.799315 14.799305
Detailed Information
使用方式:
暂无
2D Orbit Map
3D Orbit Map
Orbit Altitude Analysis Chart
Orbit Inclination Analysis Chart
Orbit Comprehensive Analysis Chart
View Comprehensive Chart